contact:dominique.lefevre@mio.osupytheas.fr, maurice.libes@osupytheas.fr, didier.mallarino@osupytheas.fr
Project:EMSO http://www.emso-fr.org/EMSO-France
Depth: 2436.0 m
Title:EMSO Ligure Ouest : Data MII capteur MICROCAT
DateTime_Computer,Latitude,Longitude,Temperature,Conductivity,Pressure,DateTime_Instrument
DateTime_Computer,Latitude,Longitude,degC,S m-1,dbar,DateTime_Instrument
2021-12-05T00:00:52Z,42.805,6.029,13.3004,4.60038,2470.077,2021-12-05T02:02:20Z
2021-12-05T00:03:55Z,42.805,6.029,13.2998,4.60039,2470.1,2021-12-05T02:05:23Z
2021-12-05T00:06:58Z,42.805,6.029,13.2999,4.60046,2470.124,2021-12-05T02:08:26Z
2021-12-05T00:10:02Z,42.805,6.029,13.3000,4.60036,2470.1,2021-12-05T02:11:29Z
2021-12-05T00:13:05Z,42.805,6.029,13.3007,4.60066,2470.087,2021-12-05T02:14:32Z
2021-12-05T00:16:08Z,42.805,6.029,13.2998,4.60049,2470.087,2021-12-05T02:17:35Z
2021-12-05T00:19:11Z,42.805,6.029,13.3011,4.60069,2470.1,2021-12-05T02:20:39Z
2021-12-05T00:22:14Z,42.805,6.029,13.3009,4.60092,2470.1,2021-12-05T02:23:42Z
2021-12-05T00:25:17Z,42.805,6.029,13.3014,4.60067,2470.087,2021-12-05T02:26:45Z
2021-12-05T00:28:20Z,42.805,6.029,13.3011,4.60043,2470.073,2021-12-05T02:29:48Z
2021-12-05T00:31:23Z,42.805,6.029,13.3000,4.60063,2470.04,2021-12-05T02:32:51Z
2021-12-05T00:34:26Z,42.805,6.029,13.3000,4.60044,2470.077,2021-12-05T02:35:54Z
2021-12-05T00:37:30Z,42.805,6.029,13.2998,4.60036,2470.087,2021-12-05T02:38:57Z
2021-12-05T00:40:33Z,42.805,6.029,13.3006,4.60067,2470.087,2021-12-05T02:42:00Z
2021-12-05T00:43:36Z,42.805,6.029,13.3000,4.60035,2470.087,2021-12-05T02:45:03Z
2021-12-05T00:46:39Z,42.805,6.029,13.3005,4.60042,2470.063,2021-12-05T02:48:07Z
2021-12-05T00:49:42Z,42.805,6.029,13.3003,4.60039,2470.063,2021-12-05T02:51:10Z
2021-12-05T00:52:45Z,42.805,6.029,13.3005,4.60044,2470.077,2021-12-05T02:54:13Z
2021-12-05T00:55:48Z,42.805,6.029,13.3008,4.60059,2470.063,2021-12-05T02:57:16Z
2021-12-05T00:58:51Z,42.805,6.029,13.3007,4.60067,2470.087,2021-12-05T03:00:19Z
2021-12-05T01:01:55Z,42.805,6.029,13.3006,4.60046,2470.063,2021-12-05T03:03:22Z
2021-12-05T01:04:58Z,42.805,6.029,13.3006,4.60057,2470.077,2021-12-05T03:06:25Z
2021-12-05T01:08:01Z,42.805,6.029,13.2994,4.60045,2470.077,2021-12-05T03:09:28Z
2021-12-05T01:11:04Z,42.805,6.029,13.3000,4.60048,2470.077,2021-12-05T03:12:32Z
2021-12-05T01:14:07Z,42.805,6.029,13.3000,4.60040,2470.077,2021-12-05T03:15:35Z
2021-12-05T01:17:10Z,42.805,6.029,13.3006,4.60048,2470.077,2021-12-05T03:18:38Z
2021-12-05T01:20:13Z,42.805,6.029,13.3006,4.60062,2470.077,2021-12-05T03:21:41Z
2021-12-05T01:23:16Z,42.805,6.029,13.3006,4.60046,2470.063,2021-12-05T03:24:44Z
2021-12-05T01:26:19Z,42.805,6.029,13.3000,4.60067,2470.077,2021-12-05T03:27:47Z
2021-12-05T01:29:23Z,42.805,6.029,13.3007,4.60064,2470.077,2021-12-05T03:30:50Z
2021-12-05T01:32:26Z,42.805,6.029,13.3004,4.60061,2470.04,2021-12-05T03:33:53Z
2021-12-05T01:35:29Z,42.805,6.029,13.3002,4.60054,2470.063,2021-12-05T03:36:56Z
2021-12-05T01:38:32Z,42.805,6.029,13.3002,4.60046,2470.087,2021-12-05T03:40:00Z
2021-12-05T01:41:35Z,42.805,6.029,13.2998,4.60038,2470.077,2021-12-05T03:43:03Z
2021-12-05T01:44:38Z,42.805,6.029,13.3011,4.60071,2470.124,2021-12-05T03:46:06Z
2021-12-05T01:47:41Z,42.805,6.029,13.3011,4.60042,2470.063,2021-12-05T03:49:09Z
2021-12-05T01:50:44Z,42.805,6.029,13.3004,4.60041,2470.063,2021-12-05T03:52:12Z
2021-12-05T01:53:48Z,42.805,6.029,13.2999,4.60046,2470.04,2021-12-05T03:55:15Z
2021-12-05T01:56:51Z,42.805,6.029,13.3000,4.60052,2470.063,2021-12-05T03:58:18Z
2021-12-05T01:59:54Z,42.805,6.029,13.3004,4.60039,2470.087,2021-12-05T04:01:21Z
2021-12-05T02:02:57Z,42.805,6.029,13.2997,4.60054,2470.077,2021-12-05T04:04:24Z
2021-12-05T02:06:00Z,42.805,6.029,13.3009,4.60054,2470.1,2021-12-05T04:07:28Z
2021-12-05T02:09:03Z,42.805,6.029,13.3015,4.60059,2470.077,2021-12-05T04:10:31Z
2021-12-05T02:12:06Z,42.805,6.029,13.3007,4.60057,2470.063,2021-12-05T04:13:34Z
2021-12-05T02:15:09Z,42.805,6.029,13.3006,4.60069,2470.1,2021-12-05T04:16:37Z
2021-12-05T02:18:12Z,42.805,6.029,13.3008,4.60064,2470.1,2021-12-05T04:19:40Z
2021-12-05T02:21:16Z,42.805,6.029,13.3001,4.60053,2470.063,2021-12-05T04:22:43Z
2021-12-05T02:24:19Z,42.805,6.029,13.2997,4.60052,2470.063,2021-12-05T04:25:46Z
2021-12-05T02:27:22Z,42.805,6.029,13.3012,4.60064,2470.063,2021-12-05T04:28:49Z
2021-12-05T02:30:25Z,42.805,6.029,13.3002,4.60052,2470.087,2021-12-05T04:31:53Z
2021-12-05T02:33:28Z,42.805,6.029,13.3006,4.60072,2470.087,2021-12-05T04:34:56Z
2021-12-05T02:36:31Z,42.805,6.029,13.2999,4.60058,2470.087,2021-12-05T04:37:59Z
2021-12-05T02:39:34Z,42.805,6.029,13.3001,4.60041,2470.077,2021-12-05T04:41:02Z
2021-12-05T02:42:37Z,42.805,6.029,13.3007,4.60047,2470.1,2021-12-05T04:44:05Z
2021-12-05T02:45:41Z,42.805,6.029,13.3015,4.60054,2470.087,2021-12-05T04:47:08Z
2021-12-05T02:48:44Z,42.805,6.029,13.3011,4.60061,2470.087,2021-12-05T04:50:11Z
2021-12-05T02:51:47Z,42.805,6.029,13.2998,4.60050,2470.077,2021-12-05T04:53:14Z
2021-12-05T02:54:50Z,42.805,6.029,13.3011,4.60062,2470.124,2021-12-05T04:56:18Z
2021-12-05T02:57:53Z,42.805,6.029,13.3000,4.60049,2470.11,2021-12-05T04:59:21Z
2021-12-05T03:00:56Z,42.805,6.029,13.3007,4.60042,2470.087,2021-12-05T05:02:24Z
2021-12-05T03:03:59Z,42.805,6.029,13.3010,4.60044,2470.063,2021-12-05T05:05:27Z
2021-12-05T03:07:02Z,42.805,6.029,13.3002,4.60069,2470.11,2021-12-05T05:08:30Z
2021-12-05T03:10:05Z,42.805,6.029,13.3011,4.60045,2470.1,2021-12-05T05:11:33Z
2021-12-05T03:13:09Z,42.805,6.029,13.3002,4.60051,2470.087,2021-12-05T05:14:36Z
2021-12-05T03:16:12Z,42.805,6.029,13.2998,4.60049,2470.11,2021-12-05T05:17:39Z
2021-12-05T03:19:15Z,42.805,6.029,13.2998,4.60038,2470.087,2021-12-05T05:20:42Z
2021-12-05T03:22:18Z,42.805,6.029,13.2998,4.60051,2470.11,2021-12-05T05:23:46Z
2021-12-05T03:25:21Z,42.805,6.029,13.2999,4.60038,2470.124,2021-12-05T05:26:49Z
2021-12-05T03:28:24Z,42.805,6.029,13.3007,4.60054,2470.1,2021-12-05T05:29:52Z
2021-12-05T03:31:27Z,42.805,6.029,13.3002,4.60039,2470.11,2021-12-05T05:32:55Z
2021-12-05T03:34:30Z,42.805,6.029,13.3003,4.60047,2470.147,2021-12-05T05:35:58Z
2021-12-05T03:37:34Z,42.805,6.029,13.3004,4.60057,2470.133,2021-12-05T05:39:01Z
2021-12-05T03:40:37Z,42.805,6.029,13.3006,4.60062,2470.124,2021-12-05T05:42:04Z
2021-12-05T03:43:40Z,42.805,6.029,13.3001,4.60056,2470.11,2021-12-05T05:45:07Z
2021-12-05T03:46:43Z,42.805,6.029,13.3000,4.60044,2470.156,2021-12-05T05:48:11Z
2021-12-05T03:49:46Z,42.805,6.029,13.3006,4.60064,2470.11,2021-12-05T05:51:14Z
2021-12-05T03:52:49Z,42.805,6.029,13.3004,4.60036,2470.18,2021-12-05T05:54:17Z
2021-12-05T03:55:52Z,42.805,6.029,13.3004,4.60040,2470.11,2021-12-05T05:57:20Z
2021-12-05T03:58:55Z,42.805,6.029,13.3005,4.60057,2470.133,2021-12-05T06:00:23Z
2021-12-05T04:01:59Z,42.805,6.029,13.3005,4.60053,2470.171,2021-12-05T06:03:26Z
2021-12-05T04:05:02Z,42.805,6.029,13.2997,4.60045,2470.171,2021-12-05T06:06:29Z
2021-12-05T04:08:05Z,42.805,6.029,13.3006,4.60038,2470.171,2021-12-05T06:09:32Z
2021-12-05T04:11:08Z,42.805,6.029,13.3005,4.60044,2470.18,2021-12-05T06:12:35Z
2021-12-05T04:14:11Z,42.805,6.029,13.3001,4.60039,2470.171,2021-12-05T06:15:39Z
2021-12-05T04:17:14Z,42.805,6.029,13.2996,4.60050,2470.171,2021-12-05T06:18:42Z
2021-12-05T04:20:17Z,42.805,6.029,13.3004,4.60046,2470.18,2021-12-05T06:21:45Z
2021-12-05T04:23:20Z,42.805,6.029,13.3004,4.60052,2470.194,2021-12-05T06:24:48Z
2021-12-05T04:26:23Z,42.805,6.029,13.3006,4.60061,2470.18,2021-12-05T06:27:51Z
2021-12-05T04:29:27Z,42.805,6.029,13.3002,4.60047,2470.189,2021-12-05T06:30:54Z
2021-12-05T04:32:30Z,42.805,6.029,13.2998,4.60040,2470.217,2021-12-05T06:33:57Z
2021-12-05T04:35:33Z,42.805,6.029,13.2997,4.60041,2470.227,2021-12-05T06:37:00Z
2021-12-05T04:38:36Z,42.805,6.029,13.3002,4.60069,2470.227,2021-12-05T06:40:04Z
2021-12-05T04:41:39Z,42.805,6.029,13.3001,4.60037,2470.217,2021-12-05T06:43:07Z
2021-12-05T04:44:42Z,42.805,6.029,13.2999,4.60029,2470.203,2021-12-05T06:46:10Z
2021-12-05T04:47:45Z,42.805,6.029,13.3003,4.60062,2470.217,2021-12-05T06:49:13Z
2021-12-05T04:50:48Z,42.805,6.029,13.3007,4.60052,2470.24,2021-12-05T06:52:16Z
2021-12-05T04:53:52Z,42.805,6.029,13.2998,4.60039,2470.203,2021-12-05T06:55:19Z
2021-12-05T04:56:55Z,42.805,6.029,13.3000,4.60040,2470.227,2021-12-05T06:58:22Z
2021-12-05T04:59:58Z,42.805,6.029,13.2998,4.60031,2470.264,2021-12-05T07:01:25Z
2021-12-05T05:03:01Z,42.805,6.029,13.3006,4.60049,2470.25,2021-12-05T07:04:29Z
2021-12-05T05:06:04Z,42.805,6.029,13.2996,4.60047,2470.227,2021-12-05T07:07:32Z
2021-12-05T05:09:07Z,42.805,6.029,13.3003,4.60028,2470.227,2021-12-05T07:10:35Z
2021-12-05T05:12:10Z,42.805,6.029,13.3001,4.60058,2470.264,2021-12-05T07:13:38Z
2021-12-05T05:15:13Z,42.805,6.029,13.3004,4.60057,2470.25,2021-12-05T07:16:41Z
2021-12-05T05:18:16Z,42.805,6.029,13.3000,4.60052,2470.264,2021-12-05T07:19:44Z
2021-12-05T05:21:20Z,42.805,6.029,13.3000,4.60046,2470.273,2021-12-05T07:22:47Z
2021-12-05T05:24:23Z,42.805,6.029,13.2998,4.60033,2470.25,2021-12-05T07:25:50Z
2021-12-05T05:27:26Z,42.805,6.029,13.2997,4.60027,2470.24,2021-12-05T07:28:53Z
2021-12-05T05:30:29Z,42.805,6.029,13.3000,4.60034,2470.264,2021-12-05T07:31:57Z
2021-12-05T05:33:32Z,42.805,6.029,13.2999,4.60039,2470.287,2021-12-05T07:35:00Z
2021-12-05T05:36:35Z,42.805,6.029,13.3010,4.60054,2470.25,2021-12-05T07:38:03Z
2021-12-05T05:39:38Z,42.805,6.029,13.2999,4.60039,2470.287,2021-12-05T07:41:06Z
2021-12-05T05:42:41Z,42.805,6.029,13.2994,4.60042,2470.25,2021-12-05T07:44:09Z
2021-12-05T05:45:45Z,42.805,6.029,13.2998,4.60042,2470.273,2021-12-05T07:47:12Z
2021-12-05T05:48:48Z,42.805,6.029,13.3003,4.60038,2470.264,2021-12-05T07:50:15Z
2021-12-05T05:51:51Z,42.805,6.029,13.3000,4.60039,2470.25,2021-12-05T07:53:18Z
2021-12-05T05:54:54Z,42.805,6.029,13.2997,4.60039,2470.297,2021-12-05T07:56:22Z
2021-12-05T05:57:57Z,42.805,6.029,13.3003,4.60046,2470.334,2021-12-05T07:59:25Z
2021-12-05T06:01:00Z,42.805,6.029,13.3002,4.60040,2470.297,2021-12-05T08:02:28Z
2021-12-05T06:04:03Z,42.805,6.029,13.3005,4.60036,2470.334,2021-12-05T08:05:31Z
2021-12-05T06:07:06Z,42.805,6.029,13.2998,4.60028,2470.297,2021-12-05T08:08:34Z
2021-12-05T06:10:09Z,42.805,6.029,13.3004,4.60039,2470.31,2021-12-05T08:11:37Z
2021-12-05T06:13:13Z,42.805,6.029,13.3000,4.60051,2470.297,2021-12-05T08:14:40Z
2021-12-05T06:16:16Z,42.805,6.029,13.3000,4.60040,2470.334,2021-12-05T08:17:43Z
2021-12-05T06:19:19Z,42.805,6.029,13.2998,4.60034,2470.334,2021-12-05T08:20:46Z
2021-12-05T06:22:22Z,42.805,6.029,13.3009,4.60037,2470.31,2021-12-05T08:23:50Z
2021-12-05T06:25:25Z,42.805,6.029,13.2997,4.60046,2470.334,2021-12-05T08:26:53Z
2021-12-05T06:28:28Z,42.805,6.029,13.3011,4.60049,2470.343,2021-12-05T08:29:56Z
2021-12-05T06:31:31Z,42.805,6.029,13.3000,4.60035,2470.343,2021-12-05T08:32:59Z
2021-12-05T06:34:34Z,42.805,6.029,13.2998,4.60032,2470.32,2021-12-05T08:36:02Z
2021-12-05T06:37:38Z,42.805,6.029,13.3000,4.60042,2470.32,2021-12-05T08:39:05Z
2021-12-05T06:40:41Z,42.805,6.029,13.3004,4.60039,2470.343,2021-12-05T08:42:08Z
2021-12-05T06:43:44Z,42.805,6.029,13.3004,4.60040,2470.334,2021-12-05T08:45:11Z
2021-12-05T06:46:47Z,42.805,6.029,13.2999,4.60041,2470.357,2021-12-05T08:48:15Z
2021-12-05T06:49:50Z,42.805,6.029,13.3004,4.60033,2470.343,2021-12-05T08:51:18Z
2021-12-05T06:52:53Z,42.805,6.029,13.2995,4.60034,2470.343,2021-12-05T08:54:21Z
2021-12-05T06:55:56Z,42.805,6.029,13.3005,4.60043,2470.357,2021-12-05T08:57:24Z
2021-12-05T06:58:59Z,42.805,6.029,13.3005,4.60038,2470.357,2021-12-05T09:00:27Z
2021-12-05T07:02:02Z,42.805,6.029,13.2998,4.60044,2470.343,2021-12-05T09:03:30Z
2021-12-05T07:05:06Z,42.805,6.029,13.2999,4.60045,2470.343,2021-12-05T09:06:33Z
2021-12-05T07:08:09Z,42.805,6.029,13.3001,4.60054,2470.334,2021-12-05T09:09:36Z
2021-12-05T07:11:12Z,42.805,6.029,13.2995,4.60037,2470.357,2021-12-05T09:12:40Z
2021-12-05T07:14:15Z,42.805,6.029,13.3000,4.60042,2470.357,2021-12-05T09:15:43Z
2021-12-05T07:17:18Z,42.805,6.029,13.2996,4.60039,2470.39,2021-12-05T09:18:46Z
2021-12-05T07:20:21Z,42.805,6.029,13.2999,4.60045,2470.366,2021-12-05T09:21:49Z
2021-12-05T07:23:24Z,42.805,6.029,13.3001,4.60035,2470.366,2021-12-05T09:24:52Z
2021-12-05T07:26:27Z,42.805,6.029,13.3003,4.60041,2470.39,2021-12-05T09:27:55Z
2021-12-05T07:29:31Z,42.805,6.029,13.2998,4.60040,2470.343,2021-12-05T09:30:58Z
2021-12-05T07:32:34Z,42.805,6.029,13.2998,4.60023,2470.38,2021-12-05T09:34:01Z
2021-12-05T07:35:37Z,42.805,6.029,13.3000,4.60033,2470.343,2021-12-05T09:37:04Z
2021-12-05T07:38:40Z,42.805,6.029,13.2998,4.60038,2470.366,2021-12-05T09:40:08Z
2021-12-05T07:41:43Z,42.805,6.029,13.3004,4.60044,2470.366,2021-12-05T09:43:11Z
2021-12-05T07:44:46Z,42.805,6.029,13.3003,4.60039,2470.357,2021-12-05T09:46:14Z
2021-12-05T07:47:49Z,42.805,6.029,13.3008,4.60042,2470.38,2021-12-05T09:49:17Z
2021-12-05T07:50:52Z,42.805,6.029,13.3003,4.60044,2470.343,2021-12-05T09:52:20Z
2021-12-05T07:53:56Z,42.805,6.029,13.2997,4.60049,2470.366,2021-12-05T09:55:23Z
2021-12-05T07:56:59Z,42.805,6.029,13.3000,4.60029,2470.366,2021-12-05T09:58:26Z
2021-12-05T08:00:02Z,42.805,6.029,13.2999,4.60035,2470.343,2021-12-05T10:01:29Z
2021-12-05T08:03:05Z,42.805,6.029,13.2998,4.60033,2470.343,2021-12-05T10:04:33Z
2021-12-05T08:06:08Z,42.805,6.029,13.3000,4.60035,2470.366,2021-12-05T10:07:36Z
2021-12-05T08:09:11Z,42.805,6.029,13.2998,4.60052,2470.366,2021-12-05T10:10:39Z
2021-12-05T08:12:14Z,42.805,6.029,13.2998,4.60028,2470.39,2021-12-05T10:13:42Z
2021-12-05T08:15:17Z,42.805,6.029,13.2996,4.60039,2470.38,2021-12-05T10:16:45Z
2021-12-05T08:18:21Z,42.805,6.029,13.2996,4.60033,2470.357,2021-12-05T10:19:48Z
2021-12-05T08:21:24Z,42.805,6.029,13.3004,4.60044,2470.343,2021-12-05T10:22:51Z
2021-12-05T08:24:27Z,42.805,6.029,13.3002,4.60027,2470.357,2021-12-05T10:25:54Z
2021-12-05T08:27:30Z,42.805,6.029,13.2998,4.60026,2470.343,2021-12-05T10:28:58Z
2021-12-05T08:30:33Z,42.805,6.029,13.2998,4.60031,2470.366,2021-12-05T10:32:01Z
2021-12-05T08:33:36Z,42.805,6.029,13.2998,4.60032,2470.343,2021-12-05T10:35:04Z
2021-12-05T08:36:39Z,42.805,6.029,13.3000,4.60044,2470.38,2021-12-05T10:38:07Z
2021-12-05T08:39:42Z,42.805,6.029,13.3000,4.60025,2470.343,2021-12-05T10:41:10Z
2021-12-05T08:42:45Z,42.805,6.029,13.3004,4.60040,2470.366,2021-12-05T10:44:13Z
2021-12-05T08:45:49Z,42.805,6.029,13.2991,4.60029,2470.38,2021-12-05T10:47:16Z
2021-12-05T08:48:52Z,42.805,6.029,13.3000,4.60039,2470.38,2021-12-05T10:50:19Z
2021-12-05T08:51:55Z,42.805,6.029,13.3002,4.60036,2470.357,2021-12-05T10:53:23Z
2021-12-05T08:54:58Z,42.805,6.029,13.3005,4.60047,2470.366,2021-12-05T10:56:26Z
2021-12-05T08:58:01Z,42.805,6.029,13.3000,4.60033,2470.357,2021-12-05T10:59:29Z
2021-12-05T09:01:04Z,42.805,6.029,13.3004,4.60039,2470.357,2021-12-05T11:02:32Z
2021-12-05T09:04:07Z,42.805,6.029,13.2997,4.60033,2470.366,2021-12-05T11:05:35Z
2021-12-05T09:07:10Z,42.805,6.029,13.2999,4.60036,2470.343,2021-12-05T11:08:38Z
2021-12-05T09:10:14Z,42.805,6.029,13.2998,4.60032,2470.38,2021-12-05T11:11:41Z
2021-12-05T09:13:17Z,42.805,6.029,13.3004,4.60034,2470.38,2021-12-05T11:14:44Z
2021-12-05T09:16:20Z,42.805,6.029,13.2999,4.60031,2470.366,2021-12-05T11:17:48Z
2021-12-05T09:19:23Z,42.805,6.029,13.3003,4.60040,2470.357,2021-12-05T11:20:51Z
2021-12-05T09:22:26Z,42.805,6.029,13.3000,4.60032,2470.343,2021-12-05T11:23:54Z
2021-12-05T09:25:29Z,42.805,6.029,13.2999,4.60031,2470.32,2021-12-05T11:26:57Z
2021-12-05T09:28:32Z,42.805,6.029,13.2996,4.60027,2470.343,2021-12-05T11:30:00Z
2021-12-05T09:31:35Z,42.805,6.029,13.2998,4.60029,2470.357,2021-12-05T11:33:03Z
2021-12-05T09:34:39Z,42.805,6.029,13.2998,4.60028,2470.334,2021-12-05T11:36:06Z
2021-12-05T09:37:42Z,42.805,6.029,13.2996,4.60031,2470.32,2021-12-05T11:39:09Z
2021-12-05T09:40:45Z,42.805,6.029,13.2998,4.60026,2470.343,2021-12-05T11:42:12Z
2021-12-05T09:43:48Z,42.805,6.029,13.2999,4.60026,2470.357,2021-12-05T11:45:16Z
2021-12-05T09:46:51Z,42.805,6.029,13.2997,4.60032,2470.31,2021-12-05T11:48:19Z
2021-12-05T09:49:54Z,42.805,6.029,13.3002,4.60028,2470.32,2021-12-05T11:51:22Z
2021-12-05T09:52:57Z,42.805,6.029,13.3000,4.60028,2470.357,2021-12-05T11:54:25Z
2021-12-05T09:56:00Z,42.805,6.029,13.3000,4.60043,2470.297,2021-12-05T11:57:28Z
2021-12-05T09:59:04Z,42.805,6.029,13.2998,4.60026,2470.32,2021-12-05T12:00:31Z
2021-12-05T10:02:07Z,42.805,6.029,13.2996,4.60028,2470.32,2021-12-05T12:03:34Z
2021-12-05T10:05:10Z,42.805,6.029,13.2998,4.60039,2470.334,2021-12-05T12:06:37Z
2021-12-05T10:08:13Z,42.805,6.029,13.2999,4.60028,2470.32,2021-12-05T12:09:41Z
2021-12-05T10:11:16Z,42.805,6.029,13.2995,4.60026,2470.32,2021-12-05T12:12:44Z
2021-12-05T10:14:19Z,42.805,6.029,13.2996,4.60030,2470.32,2021-12-05T12:15:47Z
2021-12-05T10:17:22Z,42.805,6.029,13.3000,4.60036,2470.32,2021-12-05T12:18:50Z
2021-12-05T10:20:25Z,42.805,6.029,13.2994,4.60043,2470.32,2021-12-05T12:21:53Z
2021-12-05T10:23:29Z,42.805,6.029,13.3001,4.60036,2470.297,2021-12-05T12:24:56Z
2021-12-05T10:26:32Z,42.805,6.029,13.2996,4.60039,2470.31,2021-12-05T12:27:59Z
2021-12-05T10:29:35Z,42.805,6.029,13.3002,4.60031,2470.32,2021-12-05T12:31:02Z
2021-12-05T10:32:38Z,42.805,6.029,13.3001,4.60042,2470.32,2021-12-05T12:34:06Z
2021-12-05T10:35:41Z,42.805,6.029,13.3004,4.60051,2470.32,2021-12-05T12:37:09Z
2021-12-05T10:38:44Z,42.805,6.029,13.2999,4.60033,2470.297,2021-12-05T12:40:12Z
2021-12-05T10:41:47Z,42.805,6.029,13.3006,4.60036,2470.297,2021-12-05T12:43:15Z
2021-12-05T10:44:50Z,42.805,6.029,13.2996,4.60033,2470.273,2021-12-05T12:46:18Z
2021-12-05T10:47:54Z,42.805,6.029,13.3000,4.60042,2470.287,2021-12-05T12:49:21Z
2021-12-05T10:50:57Z,42.805,6.029,13.3001,4.60036,2470.32,2021-12-05T12:52:24Z
2021-12-05T10:54:00Z,42.805,6.029,13.3006,4.60055,2470.273,2021-12-05T12:55:27Z
2021-12-05T10:57:03Z,42.805,6.029,13.3006,4.60039,2470.287,2021-12-05T12:58:31Z
2021-12-05T11:00:06Z,42.805,6.029,13.3000,4.60038,2470.264,2021-12-05T13:01:34Z
2021-12-05T11:03:09Z,42.805,6.029,13.3001,4.60040,2470.297,2021-12-05T13:04:37Z
2021-12-05T11:06:12Z,42.805,6.029,13.2998,4.60037,2470.25,2021-12-05T13:07:40Z
2021-12-05T11:09:15Z,42.805,6.029,13.3000,4.60038,2470.287,2021-12-05T13:10:43Z
2021-12-05T11:12:19Z,42.805,6.029,13.3006,4.60047,2470.264,2021-12-05T13:13:46Z
2021-12-05T11:15:22Z,42.805,6.029,13.3002,4.60039,2470.25,2021-12-05T13:16:49Z
2021-12-05T11:18:25Z,42.805,6.029,13.3003,4.60039,2470.25,2021-12-05T13:19:52Z
2021-12-05T11:21:28Z,42.805,6.029,13.3007,4.60039,2470.287,2021-12-05T13:22:56Z
2021-12-05T11:24:31Z,42.805,6.029,13.3006,4.60049,2470.227,2021-12-05T13:25:59Z
2021-12-05T11:27:34Z,42.805,6.029,13.3005,4.60037,2470.287,2021-12-05T13:29:02Z
2021-12-05T11:30:37Z,42.805,6.029,13.3001,4.60045,2470.273,2021-12-05T13:32:05Z
2021-12-05T11:33:40Z,42.805,6.029,13.2999,4.60044,2470.264,2021-12-05T13:35:08Z
2021-12-05T11:36:44Z,42.805,6.029,13.3000,4.60050,2470.273,2021-12-05T13:38:11Z
2021-12-05T11:39:47Z,42.805,6.029,13.3008,4.60047,2470.227,2021-12-05T13:41:14Z
2021-12-05T11:42:50Z,42.805,6.029,13.3005,4.60038,2470.227,2021-12-05T13:44:17Z
2021-12-05T11:45:53Z,42.805,6.029,13.3002,4.60030,2470.203,2021-12-05T13:47:21Z
2021-12-05T11:48:56Z,42.805,6.029,13.3005,4.60043,2470.25,2021-12-05T13:50:24Z
2021-12-05T11:51:59Z,42.805,6.029,13.2999,4.60047,2470.227,2021-12-05T13:53:27Z
2021-12-05T11:55:02Z,42.805,6.029,13.2995,4.60037,2470.287,2021-12-05T13:56:30Z
2021-12-05T11:58:05Z,42.805,6.029,13.3001,4.60041,2470.203,2021-12-05T13:59:33Z
2021-12-05T12:01:09Z,42.805,6.029,13.2996,4.60049,2470.25,2021-12-05T14:02:36Z
2021-12-05T12:04:12Z,42.805,6.029,13.3006,4.60047,2470.25,2021-12-05T14:05:39Z
2021-12-05T12:07:15Z,42.805,6.029,13.3004,4.60044,2470.25,2021-12-05T14:08:42Z
2021-12-05T12:10:18Z,42.805,6.029,13.3001,4.60034,2470.203,2021-12-05T14:11:46Z
2021-12-05T12:13:21Z,42.805,6.029,13.2998,4.60053,2470.227,2021-12-05T14:14:49Z
2021-12-05T12:16:24Z,42.805,6.029,13.2998,4.60033,2470.24,2021-12-05T14:17:52Z
2021-12-05T12:19:27Z,42.805,6.029,13.3004,4.60042,2470.25,2021-12-05T14:20:55Z
2021-12-05T12:22:30Z,42.805,6.029,13.3006,4.60044,2470.24,2021-12-05T14:23:58Z
2021-12-05T12:25:34Z,42.805,6.029,13.3004,4.60039,2470.203,2021-12-05T14:27:01Z
2021-12-05T12:28:37Z,42.805,6.029,13.3004,4.60045,2470.203,2021-12-05T14:30:04Z
2021-12-05T12:31:40Z,42.805,6.029,13.3000,4.60029,2470.227,2021-12-05T14:33:07Z
2021-12-05T12:34:43Z,42.805,6.029,13.3006,4.60058,2470.217,2021-12-05T14:36:11Z
2021-12-05T12:37:46Z,42.805,6.029,13.3004,4.60058,2470.194,2021-12-05T14:39:14Z
2021-12-05T12:40:49Z,42.805,6.029,13.3002,4.60040,2470.194,2021-12-05T14:42:17Z
2021-12-05T12:43:52Z,42.805,6.029,13.3005,4.60033,2470.18,2021-12-05T14:45:20Z
2021-12-05T12:46:55Z,42.805,6.029,13.3006,4.60039,2470.18,2021-12-05T14:48:23Z
2021-12-05T12:49:58Z,42.805,6.029,13.3000,4.60034,2470.217,2021-12-05T14:51:26Z
2021-12-05T12:53:02Z,42.805,6.029,13.2998,4.60041,2470.203,2021-12-05T14:54:29Z
2021-12-05T12:56:05Z,42.805,6.029,13.3003,4.60047,2470.18,2021-12-05T14:57:32Z
2021-12-05T12:59:08Z,42.805,6.029,13.3006,4.60043,2470.227,2021-12-05T15:00:35Z
2021-12-05T13:02:11Z,42.805,6.029,13.2993,4.60054,2470.217,2021-12-05T15:03:39Z
2021-12-05T13:05:14Z,42.805,6.029,13.3006,4.60054,2470.203,2021-12-05T15:06:42Z
2021-12-05T13:08:17Z,42.805,6.029,13.3004,4.60057,2470.18,2021-12-05T15:09:45Z
2021-12-05T13:11:20Z,42.805,6.029,13.3006,4.60051,2470.203,2021-12-05T15:12:48Z
2021-12-05T13:14:23Z,42.805,6.029,13.3007,4.60063,2470.194,2021-12-05T15:15:51Z
2021-12-05T13:17:27Z,42.805,6.029,13.3010,4.60054,2470.156,2021-12-05T15:18:54Z
2021-12-05T13:20:30Z,42.805,6.029,13.3005,4.60049,2470.156,2021-12-05T15:21:57Z
2021-12-05T13:23:33Z,42.805,6.029,13.3011,4.60049,2470.18,2021-12-05T15:25:00Z
2021-12-05T13:26:36Z,42.805,6.029,13.3009,4.60049,2470.18,2021-12-05T15:28:04Z
2021-12-05T13:29:39Z,42.805,6.029,13.3002,4.60039,2470.156,2021-12-05T15:31:07Z
2021-12-05T13:32:42Z,42.805,6.029,13.3004,4.60052,2470.194,2021-12-05T15:34:10Z
2021-12-05T13:35:45Z,42.805,6.029,13.2998,4.60043,2470.18,2021-12-05T15:37:13Z
2021-12-05T13:38:48Z,42.805,6.029,13.2999,4.60045,2470.156,2021-12-05T15:40:16Z
2021-12-05T13:41:52Z,42.805,6.029,13.3002,4.60035,2470.156,2021-12-05T15:43:19Z
2021-12-05T13:44:55Z,42.805,6.029,13.3003,4.60038,2470.194,2021-12-05T15:46:22Z
2021-12-05T13:47:58Z,42.805,6.029,13.3005,4.60034,2470.194,2021-12-05T15:49:25Z
2021-12-05T13:51:01Z,42.805,6.029,13.3009,4.60040,2470.156,2021-12-05T15:52:29Z
2021-12-05T13:54:04Z,42.805,6.029,13.3001,4.60035,2470.156,2021-12-05T15:55:32Z
2021-12-05T13:57:07Z,42.805,6.029,13.3008,4.60051,2470.156,2021-12-05T15:58:35Z
2021-12-05T14:00:10Z,42.805,6.029,13.3000,4.60057,2470.133,2021-12-05T16:01:38Z
2021-12-05T14:03:13Z,42.805,6.029,13.3012,4.60044,2470.133,2021-12-05T16:04:41Z
2021-12-05T14:06:17Z,42.805,6.029,13.3000,4.60057,2470.171,2021-12-05T16:07:44Z
2021-12-05T14:09:20Z,42.805,6.029,13.3006,4.60044,2470.18,2021-12-05T16:10:47Z
2021-12-05T14:12:23Z,42.805,6.029,13.3009,4.60057,2470.18,2021-12-05T16:13:50Z
2021-12-05T14:15:26Z,42.805,6.029,13.3006,4.60061,2470.096,2021-12-05T16:16:54Z
2021-12-05T14:18:29Z,42.805,6.029,13.3015,4.60052,2470.156,2021-12-05T16:19:57Z
2021-12-05T14:21:32Z,42.805,6.029,13.3004,4.60061,2470.147,2021-12-05T16:23:00Z
2021-12-05T14:24:35Z,42.805,6.029,13.3005,4.60042,2470.156,2021-12-05T16:26:03Z
2021-12-05T14:27:38Z,42.805,6.029,13.3005,4.60038,2470.133,2021-12-05T16:29:06Z
2021-12-05T14:30:42Z,42.805,6.029,13.3001,4.60033,2470.171,2021-12-05T16:32:09Z
2021-12-05T14:33:45Z,42.805,6.029,13.3002,4.60053,2470.171,2021-12-05T16:35:12Z
2021-12-05T14:36:48Z,42.805,6.029,13.3008,4.60051,2470.194,2021-12-05T16:38:15Z
2021-12-05T14:39:51Z,42.805,6.029,13.3000,4.60037,2470.133,2021-12-05T16:41:19Z
2021-12-05T14:42:54Z,42.805,6.029,13.3003,4.60055,2470.171,2021-12-05T16:44:22Z
2021-12-05T14:45:57Z,42.805,6.029,13.2998,4.60049,2470.171,2021-12-05T16:47:25Z
2021-12-05T14:49:00Z,42.805,6.029,13.2998,4.60052,2470.133,2021-12-05T16:50:28Z
2021-12-05T14:52:03Z,42.805,6.029,13.3013,4.60076,2470.147,2021-12-05T16:53:31Z
2021-12-05T14:55:07Z,42.805,6.029,13.3005,4.60046,2470.171,2021-12-05T16:56:34Z
2021-12-05T14:58:10Z,42.805,6.029,13.3010,4.60061,2470.133,2021-12-05T16:59:37Z
2021-12-05T15:01:13Z,42.805,6.029,13.3004,4.60069,2470.156,2021-12-05T17:02:40Z